N1IJV-10 Weather Reports


time (UTC)temp
C
wind
direction
speed
KPH
gust
KPH
rain 1hr
cm
rain 24hr
cm
rain mn
cm
humidity
%
barometer
mb
20260902203523 35 139 1.6 12.9 0.00 0.00 0.00 58 1010.2
20260902203022 35 141 1.6 12.9 0.00 0.00 0.00 59 1010.2
20260902202518 35 141 1.6 3.2 0.00 0.00 0.00 59 1010.0
20260902202014 35 141 0.0 4.8 0.00 0.00 0.00 60 1010.0
20260902201510 35 138 3.2 8.0 0.00 0.00 0.00 59 1010.1
20260902201004 35 140 3.2 4.8 0.00 0.00 0.00 60 1010.1
20260902200459 34 137 4.8 9.7 0.00 0.00 0.00 60 1010.4
20260902195955 35 139 1.6 11.3 0.00 0.00 0.00 62 1010.4
20260902195450 35 139 4.8 9.7 0.00 0.00 0.00 59 1010.3
20260902194949 35 141 1.6 4.8 0.00 0.00 0.00 58 1010.3
20260902194449 35 137 3.2 8.0 0.00 0.00 0.00 59 1010.5
20260902193944 34 140 3.2 4.8 0.00 0.00 0.00 65 1010.3
20260902193440 34 139 1.6 3.2 0.00 0.00 0.00 62 1010.4
20260902192938 35 139 6.4 12.9 0.00 0.00 0.00 59 1010.6
20260902192438 35 140 6.4 11.3 0.00 0.00 0.00 59 1010.5
20260902191936 35 140 4.8 4.8 0.00 0.00 0.00 60 1010.7
20260902191432 35 139 1.6 8.0 0.00 0.00 0.00 59 1010.5
20260902190928 35 138 4.8 9.7 0.00 0.00 0.00 58 1010.9
20260902190423 35 139 1.6 4.8 0.00 0.00 0.00 59 1010.7
20260902185918 35 137 3.2 8.0 0.00 0.00 0.00 58 1010.6
20260902185414 35 139 3.2 9.7 0.00 0.00 0.00 61 1010.9
20260902184909 34 139 4.8 9.7 0.00 0.00 0.00 61 1010.5
20260902184404 34 135 3.2 9.7 0.00 0.00 0.00 60 1010.7
20260902183900 33 138 3.2 4.8 0.00 0.00 0.00 63 1010.7
20260902183356 33 139 3.2 11.3 0.00 0.00 0.00 62 1010.8
20260902182852 34 137 6.4 11.3 0.00 0.00 0.00 60 1010.6
20260902182348 35 139 6.4 11.3 0.00 0.00 0.00 59 1010.8
20260902181844 34 138 1.6 4.8 0.00 0.00 0.00 62 1010.9
20260902181339 34 138 8.0 11.3 0.00 0.00 0.00 58 1010.8
20260902180833 34 138 3.2 4.8 0.00 0.00 0.00 62 1011.1
20260902180329 34 139 3.2 8.0 0.00 0.00 0.00 60 1010.9
20260902175818 34 143 6.4 11.3 0.00 0.00 0.00 60 1011.1
20260902175314 34 139 9.7 14.5 0.00 0.00 0.00 60 1010.9
20260902174809 33 139 1.6 9.7 0.00 0.00 0.00 62 1010.9
20260902174305 33 138 3.2 8.0 0.00 0.00 0.00 62 1011.0
20260902173801 33 135 3.2 8.0 0.00 0.00 0.00 63 1011.0
20260902173255 33 139 4.8 4.8 0.00 0.00 0.00 61 1011.0
20260902172750 33 140 8.0 9.7 0.00 0.00 0.00 62 1011.0
20260902172249 33 137 4.8 8.0 0.00 0.00 0.00 63 1011.2
20260902171744 32 138 3.2 11.3 0.00 0.00 0.00 64 1011.0
20260902171239 32 139 1.6 11.3 0.00 0.00 0.00 66 1011.3
20260902170736 32 136 4.8 8.0 0.00 0.00 0.00 64 1011.3
20260902170231 32 138 3.2 8.0 0.00 0.00 0.00 65 1011.1
20260902165726 32 137 4.8 4.8 0.00 0.00 0.00 66 1011.5
20260902165221 32 136 1.6 4.8 0.00 0.00 0.00 63 1011.6
20260902164720 32 141 1.6 9.7 0.00 0.00 0.00 66 1011.2
20260902164215 32 136 3.2 8.0 0.00 0.00 0.00 68 1011.4
20260902163710 32 137 1.6 8.0 0.00 0.00 0.00 68 1011.5
20260902163210 31 138 6.4 8.0 0.00 0.00 0.00 68 1011.6
20260902162708 31 139 1.6 4.8 0.00 0.00 0.00 67 1011.5
20260902162203 31 137 3.2 4.8 0.00 0.00 0.00 70 1011.5
20260902161658 31 136 1.6 4.8 0.00 0.00 0.00 70 1011.4
20260902161154 31 138 1.6 8.0 0.00 0.00 0.00 72 1011.6
20260902160650 31 138 3.2 8.0 0.00 0.00 0.00 70 1011.7
20260902160144 31 137 1.6 3.2 0.00 0.00 0.00 74 1011.6
20260902155643 30 138 1.6 8.0 0.00 0.00 0.00 71 1011.6
20260902155142 30 135 1.6 8.0 0.00 0.00 0.00 74 1011.6
20260902154637 30 137 1.6 8.0 0.00 0.00 0.00 72 1011.9
20260902154132 30 136 1.6 1.6 0.00 0.00 0.00 74 1011.9
20260902153631 30 135 6.4 8.0 0.00 0.00 0.00 72 1012.1
20260902153126 30 137 1.6 3.2 0.00 0.00 0.00 75 1011.9
20260902152623 30 136 1.6 4.8 0.00 0.00 0.00 75 1011.8
20260902152118 30 134 1.6 3.2 0.00 0.00 0.00 75 1011.8
20260902151613 30 136 1.6 3.2 0.00 0.00 0.00 75 1011.6
20260902151113 28 136 1.6 3.2 0.00 0.00 0.00 76 1011.7
20260902150608 28 135 1.6 3.2 0.00 0.00 0.00 76 1011.8
20260902150104 29 131 1.6 4.8 0.00 0.00 0.00 76 1011.6
20260902145558 30 134 1.6 3.2 0.00 0.00 0.00 75 1012.1
20260902145057 30 137 3.2 8.0 0.00 0.00 0.00 75 1011.7
20260902144554 29 137 1.6 3.2 0.00 0.00 0.00 77 1011.9
20260902144049 29 137 1.6 3.2 0.00 0.00 0.00 75 1011.5
20260902143544 28 136 1.6 3.2 0.00 0.00 0.00 75 1011.7
20260902143040 29 137 1.6 3.2 0.00 0.00 0.00 78 1011.8
20260902142535 29 136 1.6 3.2 0.00 0.00 0.00 78 1011.5
20260902142030 29 137 1.6 3.2 0.00 0.00 0.00 77 1011.8
20260902141530 28 136 0.0 1.6 0.00 0.00 0.00 78 1011.9
20260902141025 28 137 1.6 3.2 0.00 0.00 0.00 78 1011.8
20260902140520 27 134 3.2 3.2 0.00 0.00 0.00 78 1011.9
20260902140015 27 136 0.0 3.2 0.00 0.00 0.00 79 1011.7
20260902135509 27 136 1.6 3.2 0.00 0.00 0.00 79 1011.7
20260902135010 27 136 4.8 4.8 0.00 0.00 0.00 79 1011.9
20260902134505 27 136 1.6 3.2 0.00 0.00 0.00 80 1011.8
20260902134000 27 136 1.6 3.2 0.00 0.00 0.00 81 1011.6
20260902133455 26 132 3.2 4.8 0.00 0.00 0.00 81 1012.1
20260902132949 26 138 1.6 3.2 0.00 0.00 0.00 83 1011.6
20260902132445 26 134 1.6 1.6 0.00 0.00 0.00 83 1011.8
20260902131939 26 136 1.6 3.2 0.00 0.00 0.00 84 1011.8
20260902131436 26 135 1.6 4.8 0.00 0.00 0.00 84 1012.1
20260902130935 25 137 0.0 3.2 0.00 0.00 0.00 84 1012.3
20260902130431 25 133 1.6 4.8 0.00 0.00 0.00 85 1012.3
20260902125926 25 136 3.2 3.2 0.00 0.00 0.00 86 1012.1
20260902125422 25 135 0.0 1.6 0.00 0.00 0.00 86 1012.2
20260902124918 25 136 0.0 1.6 0.00 0.00 0.00 87 1012.1
20260902124414 25 133 1.6 3.2 0.00 0.00 0.00 87 1011.8
20260902123908 25 135 1.6 3.2 0.00 0.00 0.00 87 1012.2
20260902123404 25 137 0.0 1.6 0.00 0.00 0.00 87 1011.9
20260902122902 25 136 0.0 1.6 0.00 0.00 0.00 87 1011.8
20260902122359 24 136 0.0 0.0 0.00 0.00 0.00 88 1011.8
20260902121854 24 138 0.0 0.0 0.00 0.00 0.00 89 1011.7
20260902121349 24 138 0.0 0.0 0.00 0.00 0.00 89 1011.8
20260902120844 24 138 0.0 0.0 0.00 0.00 0.00 89 1011.7
20260902120340 23 138 0.0 0.0 0.00 0.00 0.00 89 1011.5
20260902115834 24 139 0.0 0.0 0.00 0.00 0.00 89 1011.5
20260902115331 24 138 0.0 0.0 0.00 0.00 0.00 89 1011.7
20260902114827 24 137 0.0 0.0 0.00 0.00 0.00 88 1011.8
20260902114323 24 136 0.0 1.6 0.00 0.00 0.00 88 1011.6
20260902113823 24 137 0.0 1.6 0.00 0.00 0.00 88 1011.4
20260902113318 24 136 0.0 0.0 0.00 0.00 0.00 88 1011.7
20260902112818 24 134 0.0 1.6 0.00 0.00 0.00 88 1011.5
20260902112315 24 135 1.6 3.2 0.00 0.00 0.00 88 1011.6
20260902111809 24 136 1.6 3.2 0.00 0.00 0.00 88 1011.6
20260902111306 24 133 1.6 3.2 0.00 0.00 0.00 88 1011.7
20260902110801 24 135 1.6 3.2 0.00 0.00 0.00 88 1011.5
20260902110257 24 136 0.0 3.2 0.00 0.00 0.00 88 1011.8
20260902105757 24 135 0.0 1.6 0.00 0.00 0.00 88 1011.7
20260902105252 24 136 0.0 3.2 0.00 0.00 0.00 88 1011.9
20260902104747 24 139 1.6 1.6 0.00 0.00 0.00 89 1011.9
20260902104243 24 136 0.0 1.6 0.00 0.00 0.00 88 1012.1
20260902103743 24 135 0.0 1.6 0.00 0.00 0.00 88 1011.7
20260902103237 24 136 0.0 0.0 0.00 0.00 0.00 87 1011.8
20260902102733 24 136 0.0 0.0 0.00 0.00 0.00 87 1011.7
20260902102230 24 136 0.0 1.6 0.00 0.00 0.00 87 1011.5
20260902101720 24 136 1.6 3.2 0.00 0.00 0.00 88 1011.7
20260902101214 24 136 1.6 1.6 0.00 0.00 0.00 88 1011.7
20260902100713 24 135 0.0 1.6 0.00 0.00 0.00 88 1011.9
20260902100209 24 136 0.0 0.0 0.00 0.00 0.00 88 1011.6
20260902095708 24 136 0.0 0.0 0.00 0.00 0.00 88 1011.6
20260902095202 24 136 0.0 0.0 0.00 0.00 0.00 88 1011.7
20260902094657 25 136 0.0 0.0 0.00 0.00 0.00 87 1011.6
20260902094153 25 135 0.0 0.0 0.00 0.00 0.00 87 1011.7
20260902093652 25 135 0.0 1.6 0.00 0.00 0.00 87 1011.8
20260902093148 25 136 0.0 1.6 0.00 0.00 0.00 87 1011.6
20260902092643 25 136 0.0 1.6 0.00 0.00 0.00 87 1011.6
20260902092137 25 135 1.6 1.6 0.00 0.00 0.00 87 1011.7
20260902091632 25 135 1.6 3.2 0.00 0.00 0.00 87 1011.4
20260902091128 24 135 0.0 0.0 0.00 0.00 0.00 89 1011.4
20260902090624 24 137 0.0 0.0 0.00 0.00 0.00 90 1011.4
20260902090123 23 134 0.0 0.0 0.00 0.00 0.00 91 1011.3
20260902085618 23 139 0.0 0.0 0.00 0.00 0.00 92 1011.4
20260902085113 23 138 0.0 0.0 0.00 0.00 0.00 92 1011.2
20260902084609 23 140 0.0 0.0 0.00 0.00 0.00 94 1011.4
20260902084105 23 138 0.0 0.0 0.00 0.00 0.00 94 1011.4
20260902083559 23 137 0.0 0.0 0.00 0.00 0.00 94 1011.5
20260902083054 23 136 0.0 0.0 0.00 0.00 0.00 94 1011.3
20260902082549 23 137 0.0 0.0 0.00 0.00 0.00 94 1011.1
20260902082046 23 138 0.0 0.0 0.00 0.00 0.00 93 1011.4
20260902081543 23 137 0.0 0.0 0.00 0.00 0.00 93 1011.2
20260902081042 23 138 0.0 0.0 0.00 0.00 0.00 93 1011.3
20260902080537 23 139 0.0 0.0 0.00 0.00 0.00 93 1011.4
20260902080034 24 138 0.0 0.0 0.00 0.00 0.00 92 1011.3
20260902075533 24 138 0.0 0.0 0.00 0.00 0.00 92 1011.3
20260902075030 24 139 0.0 0.0 0.00 0.00 0.00 91 1011.4
20260902074524 25 137 0.0 0.0 0.00 0.00 0.00 91 1011.3
20260902074019 25 137 0.0 0.0 0.00 0.00 0.00 90 1011.4
20260902073514 25 137 0.0 0.0 0.00 0.00 0.00 89 1011.3
20260902073011 25 138 0.0 0.0 0.00 0.00 0.00 89 1011.1
20260902072501 25 138 0.0 0.0 0.00 0.00 0.00 88 1011.1
20260902071957 25 136 0.0 0.0 0.00 0.00 0.00 87 1011.1
20260902071456 25 136 0.0 0.0 0.00 0.00 0.00 87 1011.1
20260902070953 26 137 0.0 0.0 0.00 0.00 0.00 86 1011.0
20260902070449 26 136 0.0 1.6 0.00 0.00 0.00 86 1011.1
20260902065947 26 137 1.6 1.6 0.00 0.00 0.00 86 1011.1
20260902065442 26 134 1.6 3.2 0.00 0.00 0.00 86 1010.9
20260902064937 26 135 1.6 1.6 0.00 0.00 0.00 86 1011.1
20260902064433 26 134 1.6 4.8 0.00 0.00 0.00 86 1011.6
20260902063929 26 136 1.6 3.2 0.00 0.00 0.00 86 1011.4
20260902063428 26 133 0.0 4.8 0.00 0.00 0.00 86 1011.5
20260902062924 26 136 3.2 4.8 0.00 0.00 0.00 86 1011.6
20260902062422 26 135 1.6 1.6 0.00 0.00 0.00 85 1011.3
20260902061917 26 134 0.0 1.6 0.00 0.00 0.00 85 1011.4
20260902061413 26 129 3.2 3.2 0.00 0.00 0.00 85 1011.3
20260902060909 26 135 1.6 3.2 0.00 0.00 0.00 86 1011.2
20260902060404 26 135 1.6 1.6 0.00 0.00 0.00 86 1011.4
20260902055900 26 134 0.0 1.6 0.00 0.00 0.00 86 1011.1
20260902055356 26 134 1.6 4.8 0.00 0.00 0.00 86 1011.1
20260902054851 26 133 1.6 1.6 0.00 0.00 0.00 87 1011.0
20260902054347 26 135 1.6 3.2 0.00 0.00 0.00 87 1011.1
20260902053842 26 133 1.6 3.2 0.00 0.00 0.00 87 1011.1
20260902053337 26 133 1.6 1.6 0.00 0.00 0.00 87 1011.2
20260902052836 26 135 1.6 3.2 0.00 0.00 0.00 86 1011.5
20260902052331 26 136 1.6 3.2 0.00 0.00 0.00 86 1011.3
20260902051831 26 133 3.2 3.2 0.00 0.00 0.00 86 1011.4
20260902051326 26 135 3.2 3.2 0.00 0.00 0.00 85 1011.4
20260902050826 26 136 1.6 3.2 0.00 0.00 0.00 85 1011.3
20260902050326 26 137 1.6 3.2 0.00 0.00 0.00 85 1011.3
20260902045821 26 138 1.6 3.2 0.00 0.00 0.00 85 1011.3
20260902045317 27 135 0.0 1.6 0.00 0.00 0.00 85 1011.4
20260902044813 27 135 1.6 4.8 0.00 0.00 0.00 84 1011.3
20260902044308 27 136 1.6 3.2 0.00 0.00 0.00 84 1011.2
20260902043802 27 137 1.6 1.6 0.00 0.00 0.00 84 1011.2
20260902043258 27 137 0.0 3.2 0.00 0.00 0.00 84 1011.4
20260902042757 27 136 0.0 3.2 0.00 0.00 0.00 84 1011.4
20260902042252 27 137 3.2 3.2 0.00 0.00 0.00 84 1011.4
20260902041748 27 137 0.0 4.8 0.00 0.00 0.00 83 1011.2
20260902041247 27 167 1.6 3.2 0.00 0.00 0.00 83 1011.2
20260902040746 27 162 0.0 3.2 0.00 0.00 0.00 82 1011.5
20260902040242 27 185 1.6 3.2 0.00 0.00 0.00 82 1011.3
20260902035740 27 176 1.6 3.2 0.00 0.00 0.00 82 1011.6
20260902035236 27 174 1.6 1.6 0.00 0.00 0.00 81 1011.4
20260902034734 27 171 1.6 1.6 0.00 0.00 0.00 81 1011.4
20260902034230 28 172 0.0 3.2 0.00 0.00 0.00 80 1011.6
20260902033728 28 174 1.6 3.2 0.00 0.00 0.00 80 1011.4
20260902033223 28 220 4.8 9.7 0.00 0.00 0.00 80 1011.4
20260902032722 28 232 4.8 4.8 0.00 0.00 0.00 79 1011.5
20260902032217 28 164 1.6 3.2 0.00 0.00 0.00 79 1011.6
20260902031717 28 281 1.6 3.2 0.00 0.00 0.00 79 1011.4
20260902031212 28 172 0.0 4.8 0.00 0.00 0.00 79 1011.5
20260902030709 28 257 4.8 4.8 0.00 0.00 0.00 78 1011.6
20260902030208 28 162 0.0 1.6 0.00 0.00 0.00 78 1011.5
20260902025707 28 175 1.6 4.8 0.00 0.00 0.00 77 1011.5
20260902025203 28 164 3.2 4.8 0.00 0.00 0.00 76 1011.3
20260902024658 28 145 3.2 8.0 0.00 0.00 0.00 76 1011.2
20260902024153 29 164 3.2 4.8 0.00 0.00 0.00 76 1011.4
20260902023648 29 201 3.2 8.0 0.00 0.00 0.00 75 1011.4
20260902023143 29 199 4.8 9.7 0.00 0.00 0.00 76 1011.6
20260902022643 29 69 3.2 8.0 0.00 0.00 0.00 76 1011.5
20260902022139 29 224 4.8 9.7 0.00 0.00 0.00 76 1011.3
20260902021634 29 167 1.6 11.3 0.00 0.00 0.00 76 1011.2
20260902021129 29 262 4.8 8.0 0.00 0.00 0.00 76 1011.6
20260902020625 29 169 3.2 4.8 0.00 0.00 0.00 76 1011.3
20260902020120 29 237 3.2 4.8 0.00 0.00 0.00 77 1011.3
20260902015616 29 163 1.6 4.8 0.00 0.00 0.00 76 1011.2
20260902015112 30 161 4.8 4.8 0.00 0.00 0.00 76 1011.1
20260902014608 30 162 1.6 4.8 0.00 0.00 0.00 75 1011.1
20260902014103 30 240 3.2 4.8 0.00 0.00 0.00 75 1011.1
20260902013602 30 253 4.8 8.0 0.00 0.00 0.00 75 1011.0
20260902013058 30 174 3.2 11.3 0.00 0.00 0.00 75 1011.0
20260902012553 30 151 1.6 11.3 0.00 0.00 0.00 76 1010.8
20260902012048 30 287 3.2 4.8 0.00 0.00 0.00 76 1010.8
20260902011544 30 241 3.2 4.8 0.00 0.00 0.00 75 1010.6
20260902011043 30 173 4.8 8.0 0.00 0.00 0.00 75 1010.7
20260902010543 30 173 1.6 4.8 0.00 0.00 0.00 76 1010.7
20260902010039 30 188 1.6 4.8 0.00 0.00 0.00 75 1010.9
20260902005536 30 175 6.4 8.0 0.00 0.00 0.00 75 1010.4
20260902005033 30 179 3.2 4.8 0.00 0.00 0.00 74 1010.4
20260902004532 30 175 4.8 8.0 0.00 0.00 0.00 75 1010.3
20260902004028 30 214 6.4 8.0 0.00 0.00 0.00 75 1010.4
20260902003523 30 196 3.2 4.8 0.00 0.00 0.00 75 1010.5
20260902003018 30 207 3.2 3.2 0.00 0.00 0.00 75 1010.4
20260902002514 30 153 1.6 4.8 0.00 0.00 0.00 75 1010.5
20260902002009 30 216 4.8 4.8 0.00 0.00 0.00 74 1010.4
20260902001503 31 137 1.6 4.8 0.00 0.00 0.00 74 1010.4
20260902000958 31 41 1.6 3.2 0.00 0.00 0.00 74 1010.4
20260902000453 31 287 3.2 4.8 0.00 0.00 0.00 73 1010.3
20260901235948 31 199 3.2 8.0 0.00 0.00 0.00 72 1010.5
20260901235443 31 250 3.2 4.8 0.00 0.00 0.00 73 1010.4
20260901234938 31 251 1.6 3.2 0.00 0.00 0.00 73 1010.6
20260901234432 31 218 4.8 8.0 0.00 0.00 0.00 72 1010.4
20260901233926 31 216 1.6 4.8 0.00 0.00 0.00 72 1010.5
20260901233422 32 258 1.6 8.0 0.00 0.00 0.00 72 1010.5
20260901232918 32 236 4.8 9.7 0.00 0.00 0.00 71 1010.5
20260901232413 32 121 1.6 4.8 0.00 0.00 0.00 71 1010.5
20260901231908 32 133 4.8 8.0 0.00 0.00 0.00 72 1010.8
20260901231404 32 120 3.2 8.0 0.00 0.00 0.00 72 1010.7
20260901230901 32 288 3.2 3.2 0.00 0.00 0.00 72 1010.6
20260901230400 32 200 1.6 3.2 0.00 0.00 0.00 71 1010.7
20260901225855 32 250 3.2 4.8 0.00 0.00 0.00 70 1010.7
20260901225355 32 230 4.8 8.0 0.00 0.00 0.00 71 1010.8
20260901224850 32 277 4.8 8.0 0.00 0.00 0.00 72 1010.6
20260901224346 32 145 3.2 3.2 0.00 0.00 0.00 72 1010.7
20260901223842 32 147 1.6 3.2 0.00 0.00 0.00 72 1010.9
20260901223338 32 118 1.6 3.2 0.00 0.00 0.00 71 1010.9
20260901222833 32 101 1.6 3.2 0.00 0.00 0.00 71 1010.9
20260901222330 32 112 1.6 4.8 0.00 0.00 0.00 70 1010.7
20260901221825 32 229 3.2 4.8 0.00 0.00 0.00 71 1010.8
20260901221320 32 256 3.2 8.0 0.00 0.00 0.00 70 1011.0
20260901220820 32 199 4.8 4.8 0.00 0.00 0.00 70 1010.8
20260901220319 32 211 3.2 9.7 0.00 0.00 0.00 70 1010.9
20260901215818 33 167 4.8 4.8 0.00 0.00 0.00 69 1010.9
20260901215317 33 191 3.2 4.8 0.00 0.00 0.00 66 1010.6
20260901214816 33 167 3.2 4.8 0.00 0.00 0.00 68 1010.5
20260901214315 33 207 1.6 3.2 0.00 0.00 0.00 68 1010.6
20260901213810 33 213 1.6 3.2 0.00 0.00 0.00 66 1010.7
20260901213309 33 189 1.6 8.0 0.00 0.00 0.00 65 1010.6
20260901212804 33 109 1.6 8.0 0.00 0.00 0.00 66 1010.7
20260901212300 34 143 1.6 8.0 0.00 0.00 0.00 67 1010.6
20260901211755 34 234 4.8 8.0 0.00 0.00 0.00 64 1010.6
20260901211251 34 94 1.6 3.2 0.00 0.00 0.00 66 1010.7
20260901210747 33 288 3.2 9.7 0.00 0.00 0.00 62 1010.9
20260901210243 34 150 1.6 8.0 0.00 0.00 0.00 67 1010.9
20260901205739 34 248 3.2 4.8 0.00 0.00 0.00 67 1010.9
20260901205238 33 245 1.6 3.2 0.00 0.00 0.00 67 1011.0
20260901204734 33 220 3.2 4.8 0.00 0.00 0.00 67 1010.7
20260901204230 33 113 1.6 1.6 0.00 0.00 0.00 69 1010.9